Home > Weather > Ribeirão Prêto > Past weeks

Flag for Brazil Past Weather in Ribeirão Prêto, São Paulo, Brazil — Yesterday and Last 2 Weeks

Now
73 °F

Passing clouds.


Feels Like: 77 °F
Forecast: 60 / 88 °F
Wind: 7 mph from Southeast

Location: Leite Lopes / Ribeir

Current Time: Aug 25, 2016 at 10:39:01 AM

Latest Report: Aug 25, 2016 at 10:00 AM


Visibility: N/A

Pressure: 30.18 "Hg (28.33 "Hg at 549m altitude)

Humidity: 57%

Dew Point: 57 °F

Location of Ribeirão PrêtoLocation

Past Weather in Ribeirão Prêto — Graph

°F

Ribeirão Prêto Temperature Yesterday

Maximum temperature yesterday: 88 °F (at 3:00 PM)
Minimum temperature yesterday: 59 °F (at 2:00 AM)
Average temperature yesterday: 71 °F

High & Low Weather Summary for the Past Weeks

 TemperatureHumidityPressure
High95 °F (Aug 19, 2:00 PM)100% (Aug 10, 11:00 PM)30.24 "Hg (Aug 10, 11:00 PM)
Low46 °F (Aug 12, 6:00 AM)14% (Aug 14, 2:00 PM)29.83 "Hg (Aug 15, 3:00 PM)
Average69 °F64%30.05 "Hg
* Reported Aug 10 9:00 AM — Aug 25 9:00 AM, Ribeirão Prêto, Weather by CustomWeather, © 2016

Note: Actual official high and low records may vary slightly from our data, if they occured in-between our weather recording intervals... More about our weather records

Advertising

Ribeirão Prêto Weather History for the Previous 24 Hours

Scroll right to see more
 ConditionsComfort  
Time TempWeatherWind HumidityBarometerVisibility
9:00 AM
Thu, Aug 25
70 °FSunny.6 mph64%30.18 "Hg10 mi
8:00 AM63 °FSunny.3 mph83%30.18 "Hg10 mi
7:00 AM59 °FSunny.No wind88%30.15 "Hg10 mi
6:00 AM57 °FSunny.No wind94%30.12 "Hg10 mi
5:00 AM61 °FClear.No wind83%30.09 "Hg10 mi
1:00 AM66 °FClear.6 mph73%30.09 "Hg10 mi
12:00 AM68 °FClear.7 mph73%30.09 "Hg10 mi
11:00 PM
Wed, Aug 24
68 °FClear.6 mph73%30.12 "Hg10 mi
10:00 PM72 °FClear.8 mph65%30.12 "Hg10 mi
9:00 PM73 °FClear.9 mph61%30.09 "Hg10 mi
8:00 PM75 °FClear.9 mph57%30.09 "Hg10 mi
7:00 PM77 °FClear.2 mph54%30.07 "Hg10 mi
6:00 PM81 °FClear.12 mph48%30.07 "Hg10 mi
5:00 PM84 °FClear.13 mph43%30.07 "Hg10 mi
4:00 PM86 °FSunny.8 mph38%30.04 "Hg10 mi
3:00 PM88 °FSunny.8 mph38%30.04 "Hg10 mi
2:00 PM86 °FSunny.7 mph40%30.07 "Hg10 mi
1:00 PM84 °FSunny.10 mph43%30.09 "Hg10 mi
12:00 PM81 °FPassing clouds.8 mph48%30.15 "HgN/A
11:00 AM75 °FSunny.10 mph57%30.15 "Hg10 mi
10:00 AM72 °FSunny.10 mph61%30.18 "Hg10 mi
Weather by CustomWeather, © 2016

See weather overviewHow to use our weather pages